Hourly Weather Bolshoy Sars

Today, 6 August, Friday

Time Temperature Precipitation Wind Pressure Humidity
00:00 +14°C° 0 mm 3 mps 730 mmHg 92%
01:00 +14°C° 0 mm 2 mps 730 mmHg 93%
02:00 +12°C° 0 mm 3 mps 730 mmHg 93%
03:00 +12°C° 0 mm 3 mps 730 mmHg 93%
04:00 +11°C° 0 mm 3 mps 730 mmHg 93%
05:00 +13°C° 0 mm 3 mps 730 mmHg 88%
06:00 +14°C° 0 mm 4 mps 730 mmHg 83%
07:00 +15°C° 0 mm 4 mps 731 mmHg 78%
08:00 +16°C° 0 mm 5 mps 731 mmHg 69%
09:00 +19°C° 0 mm 5 mps 731 mmHg 60%
10:00 +20°C° 0 mm 5 mps 731 mmHg 51%
11:00 +21°C° 0 mm 5 mps 731 mmHg 47%
12:00 +21°C° 0 mm 5 mps 731 mmHg 43%
13:00 +22°C° 0 mm 5 mps 731 mmHg 39%
14:00 +22°C° 0 mm 5 mps 731 mmHg 38%
15:00 +21°C° 0 mm 5 mps 732 mmHg 38%
16:00 +21°C° 0 mm 5 mps 732 mmHg 38%
17:00 +20°C° 0 mm 4 mps 732 mmHg 45%
18:00 +19°C° 0 mm 4 mps 732 mmHg 51%
19:00 +17°C° 0 mm 3 mps 732 mmHg 58%
20:00 +16°C° 0 mm 3 mps 732 mmHg 65%
21:00 +14°C° 0 mm 2 mps 732 mmHg 72%
22:00 +12°C° 0 mm 2 mps 732 mmHg 78%
23:00 +10°C° 0 mm 2 mps 732 mmHg 80%

Tomorrow, 7 August, Saturday

Time Temperature Precipitation Wind Pressure Humidity
00:00 +10°C° 0 mm 2 mps 732 mmHg 83%
01:00 +10°C° 0 mm 1 mps 732 mmHg 85%
02:00 +9°C° 0 mm 2 mps 732 mmHg 87%
03:00 +9°C° 0 mm 2 mps 732 mmHg 89%
04:00 +8°C° 0 mm 2 mps 733 mmHg 90%
05:00 +10°C° 0 mm 2 mps 733 mmHg 84%
06:00 +11°C° 0 mm 3 mps 733 mmHg 77%
07:00 +12°C° 0 mm 3 mps 733 mmHg 70%
08:00 +14°C° 0 mm 4 mps 733 mmHg 64%
09:00 +15°C° 0 mm 4 mps 733 mmHg 57%
10:00 +16°C° 0 mm 5 mps 733 mmHg 51%
11:00 +17°C° 0 mm 5 mps 733 mmHg 49%
12:00 +19°C° 0 mm 5 mps 733 mmHg 46%
13:00 +20°C° 0 mm 5 mps 733 mmHg 44%
14:00 +20°C° 0 mm 5 mps 733 mmHg 44%
15:00 +20°C° 0 mm 5 mps 733 mmHg 44%
16:00 +20°C° 0 mm 5 mps 733 mmHg 44%
17:00 +19°C° 0 mm 4 mps 733 mmHg 49%
18:00 +18°C° 0 mm 4 mps 733 mmHg 54%
19:00 +17°C° 0 mm 3 mps 733 mmHg 59%
20:00 +14°C° 0 mm 3 mps 733 mmHg 67%
21:00 +14°C° 0 mm 2 mps 733 mmHg 75%
22:00 +12°C° 0 mm 2 mps 733 mmHg 83%
23:00 +10°C° 0 mm 2 mps 733 mmHg 84%

Day after tomorrow, 8 August, Sunday

Time Temperature Precipitation Wind Pressure Humidity
00:00 +10°C° 0 mm 3 mps 733 mmHg 86%
01:00 +10°C° 0 mm 3 mps 733 mmHg 87%
02:00 +9°C° 0 mm 3 mps 734 mmHg 90%
03:00 +9°C° 0 mm 3 mps 734 mmHg 93%
04:00 +8°C° 0 mm 2 mps 734 mmHg 96%
05:00 +9°C° 0 mm 3 mps 734 mmHg 92%
06:00 +10°C° 0 mm 3 mps 734 mmHg 88%
07:00 +11°C° 0 mm 4 mps 734 mmHg 84%
08:00 +13°C° 0 mm 4 mps 735 mmHg 79%
09:00 +14°C° 0 mm 4 mps 735 mmHg 74%
10:00 +17°C° 0 mm 4 mps 735 mmHg 70%
11:00 +18°C° 0 mm 4 mps 735 mmHg 67%
12:00 +19°C° 0 mm 4 mps 735 mmHg 64%
13:00 +20°C° 0 mm 4 mps 735 mmHg 61%
14:00 +21°C° 0 mm 4 mps 736 mmHg 60%
15:00 +21°C° 0 mm 4 mps 736 mmHg 59%
16:00 +22°C° 0 mm 4 mps 736 mmHg 58%
17:00 +21°C° 0 mm 4 mps 736 mmHg 63%
18:00 +20°C° 0 mm 3 mps 736 mmHg 68%
19:00 +19°C° 0 mm 3 mps 736 mmHg 72%
20:00 +17°C° 0 mm 2 mps 736 mmHg 79%
21:00 +15°C° 0 mm 2 mps 736 mmHg 86%
22:00 +14°C° 0 mm 2 mps 736 mmHg 94%
23:00 +13°C° 0 mm 2 mps 736 mmHg 94%

9 August, Monday

Time Temperature Precipitation Wind Pressure Humidity
00:00 +13°C° 0 mm 2 mps 736 mmHg 95%
01:00 +12°C° 0 mm 2 mps 736 mmHg 95%
02:00 +12°C° 0 mm 2 mps 736 mmHg 96%
03:00 +10°C° 0 mm 2 mps 737 mmHg 96%
04:00 +10°C° 0 mm 2 mps 737 mmHg 96%
05:00 +12°C° 0 mm 2 mps 737 mmHg 91%
06:00 +13°C° 0 mm 2 mps 737 mmHg 86%
07:00 +14°C° 0 mm 2 mps 737 mmHg 81%
08:00 +16°C° 0 mm 2 mps 737 mmHg 71%
09:00 +18°C° 0 mm 3 mps 737 mmHg 61%
10:00 +19°C° 0 mm 3 mps 737 mmHg 52%
11:00 +20°C° 0 mm 3 mps 737 mmHg 48%
12:00 +21°C° 0 mm 3 mps 737 mmHg 44%
13:00 +22°C° 0 mm 3 mps 737 mmHg 40%
14:00 +22°C° 0 mm 3 mps 737 mmHg 41%
15:00 +22°C° 0 mm 3 mps 737 mmHg 41%
16:00 +22°C° 0 mm 3 mps 737 mmHg 42%
17:00 +21°C° 0 mm 2 mps 737 mmHg 50%
18:00 +19°C° 0 mm 2 mps 737 mmHg 58%
19:00 +19°C° 0 mm 1 mps 737 mmHg 66%
20:00 +18°C° 0 mm 1 mps 736 mmHg 67%
21:00 +16°C° 0 mm 1 mps 736 mmHg 68%
22:00 +15°C° 0 mm 1 mps 736 mmHg 69%
23:00 +14°C° 0 mm 1 mps 736 mmHg 69%

10 August, Tuesday

Time Temperature Precipitation Wind Pressure Humidity
00:00 +13°C° 0 mm 0 mps 736 mmHg 68%
01:00 +13°C° 0 mm 0 mps 736 mmHg 67%
02:00 +14°C° 0 mm 1 mps 736 mmHg 67%
03:00 +14°C° 0 mm 1 mps 736 mmHg 66%
04:00 +14°C° 0 mm 1 mps 736 mmHg 65%
05:00 +14°C° 0.6 mm 1 mps 735 mmHg 74%
06:00 +14°C° 0.6 mm 2 mps 735 mmHg 83%
07:00 +13°C° 0.6 mm 2 mps 735 mmHg 91%
08:00 +14°C° 0.3 mm 2 mps 735 mmHg 89%
09:00 +15°C° 0.3 mm 2 mps 734 mmHg 87%
10:00 +16°C° 0.3 mm 2 mps 734 mmHg 85%
11:00 +19°C° 0.1 mm 2 mps 734 mmHg 72%
12:00 +23°C° 0.1 mm 2 mps 733 mmHg 58%
13:00 +26°C° 0.1 mm 2 mps 733 mmHg 45%
14:00 +26°C° 0 mm 2 mps 733 mmHg 48%
15:00 +25°C° 0 mm 3 mps 733 mmHg 51%
16:00 +25°C° 0 mm 4 mps 732 mmHg 54%
17:00 +22°C° 0 mm 4 mps 733 mmHg 62%
18:00 +20°C° 0 mm 4 mps 733 mmHg 69%
19:00 +19°C° 0 mm 4 mps 733 mmHg 76%
20:00 +17°C° 0 mm 3 mps 733 mmHg 83%
21:00 +14°C° 0 mm 3 mps 733 mmHg 90%
22:00 +13°C° 0 mm 2 mps 733 mmHg 96%
23:00 +12°C° 0 mm 2 mps 733 mmHg 96%

11 August, Wednesday

Time Temperature Precipitation Wind Pressure Humidity
00:00 +12°C° 0 mm 2 mps 733 mmHg 96%
01:00 +10°C° 0 mm 2 mps 733 mmHg 96%
02:00 +10°C° 0 mm 2 mps 733 mmHg 96%
03:00 +9°C° 0 mm 2 mps 733 mmHg 96%
04:00 +9°C° 0 mm 2 mps 734 mmHg 97%
05:00 +10°C° 0 mm 2 mps 734 mmHg 93%
06:00 +12°C° 0 mm 2 mps 734 mmHg 88%
07:00 +13°C° 0 mm 2 mps 734 mmHg 84%
08:00 +14°C° 0 mm 3 mps 734 mmHg 75%
09:00 +17°C° 0 mm 3 mps 734 mmHg 66%
10:00 +19°C° 0 mm 3 mps 734 mmHg 57%
11:00 +20°C° 0 mm 4 mps 734 mmHg 56%
12:00 +20°C° 0 mm 4 mps 734 mmHg 54%
13:00 +21°C° 0 mm 4 mps 734 mmHg 52%
14:00 +20°C° 0 mm 4 mps 735 mmHg 55%
15:00 +20°C° 0 mm 4 mps 735 mmHg 58%
16:00 +19°C° 0 mm 4 mps 735 mmHg 61%
17:00 +18°C° 0 mm 4 mps 735 mmHg 66%
18:00 +17°C° 0 mm 4 mps 735 mmHg 71%
19:00 +15°C° 0 mm 4 mps 735 mmHg 77%
20:00 +14°C° 0 mm 4 mps 735 mmHg 81%
21:00 +13°C° 0 mm 4 mps 735 mmHg 85%
22:00 +12°C° 0 mm 4 mps 736 mmHg 89%
23:00 +11°C° 0 mm 3 mps 736 mmHg 91%
Show more

We Need Your Consent

Meteoprog and our Service Providers may store and access personal data such as cookies, device identifiers or other similar technologies on your device and process such data to personalise content and ads, as well as provide social media features and to analyse the traffic.

  • Store and/or access information on your device

    Cookies, device identifiers or other information can be stored or accessed on your device for the purposes indicated above.

  • Personalised ads and content, ad and content measurement, audience insights, and products development

    Ads and content can be personalised based on a profile. More data can be added to better personalise ads and content. Ad and content performance can be measured. Insights about the audience who saw the ads and content can be derived. Such data can be used to develop or improve user’s experience, systems and software.

By clicking ‘I Agree’ you will allow the use of indicated cookies, device identifiers, web beacons or other similar technologies. Your settings can be changed in the browser on your device.

For certain purposes, legitimate interests may be relied on, rather than consent. You can read more about this in our Privacy and Cookie Policy.